Location: Akdamlar
(36.8729°N, 30.5187°E)
Time: 15:37:08
(UTC+00:00)

USA 116 - Pass Details

Date: 18 September 2020
Orbit: 405 x 834 km, 97.9° (Epoch: 18 November)

Event Time Altitude Azimuth Distance (km) Brightness Sun altitude
Rises 16:43:16 0° 11° (N) 2,472 7.0 -9.3°
Reaches altitude 10° 16:45:12 10° 10° (N) 1,640 6.1 -9.7°
Maximum altitude 16:48:42 82° 285° (WNW) 518 3.6 -10.4°
Drops below altitude 10° 16:52:38 10° 196° (SSW) 1,832 6.5 -11.2°
Sets 16:54:54 0° 195° (SSW) 2,795 7.4 -11.6°
